User: anonymous   Login
Location: Waning Moon II Observatory
(30.3730°N, 89.7620°W)
Time: 19:43:09
(UTC-05:00)
Language:

Meteor 1-21 - Orbit

View from above orbital plane
View from above orbital plane
View from above satellite
View from above satellite

Ground track
Ground track

The orbit data is extracted from the following two-line orbital elements,

1  7714U 75023A   17205.46001882 +.00000096 +00000-0 +48665-4 0  9998
2  7714 081.2093 155.3724 0033666 149.3724 210.9420 14.07950884490181
Epoch (UTC): 24 July 2017 11:02:25
Eccentricity: 0.0033666
inclination: 81.2093°
perigee height: 842 km
apogee height: 891 km
right ascension of ascending node: 155.3724°
argument of perigee: 149.3724°
revolutions per day: 14.07950884
mean anomaly at epoch: 210.9420°
orbit number at epoch: 49018

The dashed part of the orbit path shows where the satellite is in the earth's shadow,  

DLR